Wind_Speed
16 17 13 10 12 12 13 14 14 14 16 16 16 19 18 18 18 19 19 18 17 15 15 15 16 16 14 13 14 14 15 15 15
12 11 10 8 10 12 12 14 15 18 17 16 16 19 18 18 19 17 17 15 16 18 17 17 18 18 17 17 17 17 17 17 17
8 5 5 7 9 12 12 14 15 15 15 16 17 18 21 20 18 17 14 18 17 18 16 17 18 18 17 15 15 15 14 15 16
7 8 7 9 10 12 14 14 15 15 15 15 18 23 17 15 14 12 14 18 19 18 17 16 14 15 15 16 16 17 17 16 15
10 9 8 10 11 13 16 17 16 16 17 17 20 18 14 14 13 13 14 21 20 19 18 15 15 15 15 15 15 15 15 15 15
13 10 10 10 12 14 18 16 16 18 16 19 18 16 12 11 10 12 15 22 21 20 18 15 15 14 14 14 15 14 14 14 14
15 13 12 12 13 12 15 18 17 17 18 19 18 13 11 8 12 14 23 22 20 20 18 16 15 14 13 14 14 14 13 13 13
17 14 13 14 16 15 17 18 16 20 20 21 17 11 10 13 18 21 22 21 19 18 17 16 13 13 13 13 13 13 12 12 12
18 17 18 18 18 17 18 18 18 19 20 19 17 13 14 19 21 19 20 18 18 18 14 14 13 14 13 13 12 11 11 11 10
19 16 20 20 19 19 18 18 19 20 18 18 17 15 17 22 23 22 18 18 18 18 14 14 14 13 13 12 11 10 10 9 9
23 18 21 21 18 21 19 17 17 20 19 20 20 18 19 22 22 20 15 15 15 17 15 14 14 13 12 11 10 9 8 8 8
26 20 21 21 17 21 20 18 18 20 19 23 22 22 21 19 20 20 16 14 13 16 16 15 14 13 10 9 9 8 8 8 7
27 24 22 23 21 21 20 19 20 21 21 23 21 21 21 21 20 20 20 18 21 15 16 15 14 12 10 8 7 7 7 7 6
32 28 26 27 28 22 21 21 24 24 25 23 21 20 20 20 21 20 19 20 20 19 16 15 15 13 9 7 6 5 5 5 5
29 31 27 27 23 24 21 20 19 25 28 23 20 20 19 21 21 21 20 18 17 17 18 16 14 12 10 7 5 4 4 4 4
24 27 27 31 30 25 26 21 22 20 26 26 16 13 14 17 19 21 19 17 17 18 17 17 14 8 6 5 5 4 4 4 4
23 26 29 32 33 36 31 32 24 12 26 11 12 3 4 7 13 15 17 18 17 16 16 15 13 10 6 4 1 1 4 4 5
22 26 31 39 35 31 39 38 37 25 27 21 7 3 3 5 5 10 12 14 15 15 15 15 13 10 8 5 3 2 2 5 6
21 23 32 42 39 39 38 37 34 39 33 24 10 8 14 3 3 6 11 12 13 15 15 14 12 11 8 6 4 2 3 6 7
21 25 29 34 37 43 40 35 36 30 28 26 24 16 12 12 4 3 6 11 12 13 13 14 13 11 9 6 4 4 6 6 7
Wind_Direction
152 139 143 147 147 146 150 159 160 162 153 140 142 141 140 133 124 119 112 108 103 90 88 94 97 97 97 98 95 93 91 90 86
149 151 146 150 150 153 157 163 157 152 149 146 150 150 146 133 129 126 120 118 113 101 97 101 102 102 99 97 94 92 88 88 85
141 136 188 180 162 161 163 169 168 167 155 152 157 155 146 139 133 129 121 126 116 110 106 100 99 99 96 97 96 93 91 86 85
184 178 177 173 170 170 169 168 174 172 165 160 159 151 150 140 136 131 125 127 124 114 112 103 100 102 105 99 95 93 88 85 81
189 187 182 182 175 178 172 173 175 172 166 164 160 155 158 156 145 142 141 134 125 117 111 108 109 107 101 96 93 91 92 86 81
193 191 186 186 179 179 171 175 178 181 172 171 163 159 159 158 162 152 155 136 127 122 113 118 111 102 103 103 98 94 93 90 88
196 198 192 187 177 172 189 177 178 171 169 168 160 153 177 188 167 148 141 129 124 118 119 117 110 111 107 105 101 97 95 92 88
193 193 187 187 183 190 184 182 185 186 179 171 164 179 175 164 160 151 135 124 122 116 120 122 121 114 111 106 100 99 96 91 87
199 190 189 192 188 191 193 189 187 190 184 177 174 181 170 158 147 138 130 129 125 115 125 119 121 116 112 109 106 101 95 90 83
206 206 191 191 188 198 201 190 190 183 183 181 174 176 176 167 152 142 137 128 125 124 132 130 125 119 113 109 105 98 93 86 79
211 207 196 197 192 197 207 195 201 188 196 191 181 177 170 163 154 147 145 137 133 136 139 138 129 124 119 112 107 100 92 83 74
214 208 194 201 206 198 198 188 199 193 194 180 177 172 166 160 152 155 147 143 134 146 143 139 135 128 122 116 109 100 90 80 70
219 209 196 195 210 205 199 189 192 182 177 170 168 166 162 165 164 160 158 149 150 146 145 140 139 134 123 113 103 95 85 75 63
218 216 197 195 201 203 205 198 196 181 173 168 166 164 165 166 166 166 163 157 156 152 143 145 139 132 125 113 99 86 80 70 55
225 220 204 193 207 198 195 200 195 189 175 163 158 158 164 165 165 165 164 167 171 177 171 168 155 151 122 110 95 78 68 52 34
225 222 209 190 192 201 187 181 187 173 171 145 129 129 154 162 164 164 169 175 178 183 184 185 181 159 157 124 87 58 49 25 6
224 221 212 192 194 199 186 178 170 175 175 168 128 132 93 158 165 165 170 176 184 183 189 195 198 194 190 198 167 48 30 16 355
229 223 210 193 193 196 189 183 185 169 183 173 148 139 158 134 182 181 184 188 186 187 191 193 199 204 202 208 226 253 352 3 352
231 228 210 199 197 196 195 183 186 180 182 182 178 172 142 156 156 194 198 201 198 196 195 199 204 206 210 212 230 293 339 352 346
228 223 213 203 198 203 201 193 190 194 185 183 161 146 146 138 127 166 171 203 210 213 209 207 206 211 213 224 247 292 314 336 340
Height
827 828 830 832 835 837 839 841 842 843 845 847 848 849 850 851 853 855 857 857 859 860 860 860 860 861 863 864 865 866 866 866 866
827 829 830 833 836 838 840 841 843 844 846 848 849 850 851 853 854 857 857 859 860 861 862 862 863 863 865 866 867 867 868 868 868
828 829 831 834 836 838 840 842 843 845 847 849 849 851 852 854 855 857 859 860 862 862 864 864 865 866 868 869 869 870 870 870 871
827 829 832 834 836 838 840 842 844 845 847 849 851 852 854 855 856 858 861 861 863 864 866 867 868 869 870 871 871 872 872 873 873
827 828 831 834 836 837 840 842 843 846 847 849 851 853 855 856 858 859 861 862 864 866 867 870 871 871 872 873 874 875 875 875 876
826 828 831 834 836 838 839 842 844 846 849 850 851 854 855 857 859 860 861 863 865 866 868 871 873 874 875 876 876 877 877 878 878
824 827 830 833 836 838 839 841 845 847 849 851 853 854 856 857 859 861 862 864 866 867 870 873 874 876 877 877 878 879 879 880 879
822 825 829 832 835 838 839 841 844 847 849 851 853 856 856 857 859 862 863 865 867 869 872 874 876 877 878 879 880 881 881 881 881
821 823 827 830 833 837 839 841 844 847 849 851 853 856 857 858 860 861 864 866 868 870 874 875 877 879 880 881 882 882 882 882 882
819 822 825 828 831 835 838 840 843 845 849 851 853 856 858 859 861 862 867 867 869 870 875 877 879 880 881 882 883 883 883 883 883
816 820 824 827 828 832 836 839 843 846 848 851 854 856 858 860 861 864 867 868 869 872 876 878 880 881 883 883 884 884 884 884 883
813 817 821 827 831 830 834 837 841 844 847 850 854 856 858 861 862 865 868 870 869 874 876 879 881 882 884 885 885 885 884 884 884
809 815 817 821 832 831 832 835 838 841 846 850 854 857 859 862 864 865 867 869 869 876 877 879 881 883 885 886 886 886 885 884 884
806 810 812 816 823 828 831 835 838 839 842 848 853 855 859 862 864 866 867 869 871 875 878 879 881 882 885 886 887 886 885 884 884
802 805 807 813 822 825 828 834 840 842 841 846 850 854 858 861 864 866 868 869 871 875 877 880 881 882 884 886 886 886 886 885 884
798 800 802 810 809 820 826 828 839 846 844 846 852 856 858 861 863 866 868 870 871 874 877 879 881 882 883 884 885 886 885 885 884
794 796 800 804 807 815 820 821 834 842 844 846 848 858 862 863 863 865 868 870 872 874 876 879 880 880 881 882 881 884 884 883 882
791 793 796 800 805 813 813 816 824 830 842 843 843 851 854 862 865 865 868 871 872 874 876 877 879 879 879 879 880 881 880 881 880
789 792 794 797 803 806 814 813 821 816 831 839 839 841 844 854 865 866 867 871 872 873 874 876 878 878 879 878 879 879 878 879 878
786 789 792 796 798 803 807 812 812 819 823 826 827 838 843 846 852 859 864 869 871 873 873 875 875 877 878 879 878 877 877 877 876